Year,Month,Day,Hour,Minute,Value (Times are PST for temperature in C)
2008,07,23,00,00,15.60
2008,07,23,00,01,15.60
2008,07,23,00,02,15.60
2008,07,23,00,03,15.60
2008,07,23,00,04,15.50
2008,07,23,00,05,15.50
2008,07,23,00,06,15.50
2008,07,23,00,07,15.40
2008,07,23,00,08,15.40
2008,07,23,00,09,15.40
2008,07,23,00,10,15.40
2008,07,23,00,11,15.40
2008,07,23,00,12,15.40
2008,07,23,00,13,15.40
2008,07,23,00,14,15.40
2008,07,23,00,15,15.40
2008,07,23,00,16,15.40
2008,07,23,00,17,15.40
2008,07,23,00,18,15.40
2008,07,23,00,19,15.40
2008,07,23,00,20,15.30
2008,07,23,00,21,15.30
2008,07,23,00,22,15.30
2008,07,23,00,23,15.30
2008,07,23,00,24,15.30
2008,07,23,00,25,15.30
2008,07,23,00,26,15.30
2008,07,23,00,27,15.30
2008,07,23,00,28,15.30
2008,07,23,00,29,15.30
2008,07,23,00,30,15.30
2008,07,23,00,31,15.30
2008,07,23,00,32,15.30
2008,07,23,00,33,15.30
2008,07,23,00,34,15.30
2008,07,23,00,35,15.30
2008,07,23,00,36,15.30
2008,07,23,00,37,15.30
2008,07,23,00,38,15.30
2008,07,23,00,39,15.30
2008,07,23,00,40,15.30
2008,07,23,00,41,15.30
2008,07,23,00,42,15.30
2008,07,23,00,43,15.30
2008,07,23,00,44,15.30
2008,07,23,00,45,15.30
2008,07,23,00,50,15.30
2008,07,23,00,51,15.30
2008,07,23,00,52,15.30
2008,07,23,00,53,15.30
2008,07,23,00,54,15.20
2008,07,23,00,55,15.20
2008,07,23,00,56,15.20
2008,07,23,00,57,15.20
2008,07,23,00,58,15.20
2008,07,23,00,59,15.10
2008,07,23,01,00,15.10
2008,07,23,01,01,15.10
2008,07,23,01,02,15.10
2008,07,23,01,03,15.10
2008,07,23,01,04,15.10
2008,07,23,01,05,15.00
2008,07,23,01,06,15.00
2008,07,23,01,07,15.00
2008,07,23,01,08,15.00
2008,07,23,01,09,15.00
2008,07,23,01,10,15.00
2008,07,23,01,11,15.00
2008,07,23,01,12,15.00
2008,07,23,01,13,15.00
2008,07,23,01,14,15.00
2008,07,23,01,15,15.00
2008,07,23,01,16,15.00
2008,07,23,01,17,15.00
2008,07,23,01,18,15.00
2008,07,23,01,19,15.00
2008,07,23,01,20,15.00
2008,07,23,01,21,15.00
2008,07,23,01,22,15.00
2008,07,23,01,23,15.00
2008,07,23,01,24,15.00
2008,07,23,01,25,15.00
2008,07,23,01,26,15.00
2008,07,23,01,27,15.00
2008,07,23,01,28,15.00
2008,07,23,01,29,15.00
2008,07,23,01,30,15.00
2008,07,23,01,31,15.00
2008,07,23,01,32,15.00
2008,07,23,01,33,15.00
2008,07,23,01,34,15.00
2008,07,23,01,35,15.00
2008,07,23,01,36,15.00
2008,07,23,01,37,15.00
2008,07,23,01,38,15.00
2008,07,23,01,39,15.00
2008,07,23,01,40,15.00
2008,07,23,01,41,15.00
2008,07,23,01,42,15.00
2008,07,23,01,43,14.90
2008,07,23,01,44,14.90
2008,07,23,01,45,14.80
2008,07,23,01,46,14.90
2008,07,23,01,47,14.90
2008,07,23,01,48,15.00
2008,07,23,01,49,14.90
2008,07,23,01,50,14.90
2008,07,23,01,51,14.90
2008,07,23,01,52,14.90
2008,07,23,01,53,14.80
2008,07,23,01,54,14.80
2008,07,23,01,55,14.80
2008,07,23,01,56,14.80
2008,07,23,01,57,14.70
2008,07,23,01,58,14.70
2008,07,23,01,59,14.70
2008,07,23,02,00,14.70
2008,07,23,02,01,14.70
2008,07,23,02,02,14.70
2008,07,23,02,03,14.70
2008,07,23,02,04,14.70
2008,07,23,02,05,14.70
2008,07,23,02,06,14.70
2008,07,23,02,07,14.60
2008,07,23,02,08,14.60
2008,07,23,02,09,14.60
2008,07,23,02,10,14.60
2008,07,23,02,11,14.60
2008,07,23,02,12,14.60
2008,07,23,02,13,14.60
2008,07,23,02,14,14.60
2008,07,23,02,15,14.50
2008,07,23,02,16,14.60
2008,07,23,02,17,14.60
2008,07,23,02,18,14.60
2008,07,23,02,19,14.60
2008,07,23,02,20,14.60
2008,07,23,02,21,14.70
2008,07,23,02,22,14.70
2008,07,23,02,23,14.70
2008,07,23,02,24,14.60
2008,07,23,02,25,14.60
2008,07,23,02,26,14.60
2008,07,23,02,27,14.60
2008,07,23,02,28,14.60
2008,07,23,02,29,14.60
2008,07,23,02,30,14.50
2008,07,23,02,31,14.50
2008,07,23,02,32,14.50
2008,07,23,02,33,14.50
2008,07,23,02,34,14.50
2008,07,23,02,35,14.50
2008,07,23,02,36,14.50
2008,07,23,02,37,14.50
2008,07,23,02,38,14.40
2008,07,23,02,39,14.40
2008,07,23,02,40,14.40
2008,07,23,02,41,14.40
2008,07,23,02,42,14.40
2008,07,23,02,43,14.30
2008,07,23,02,44,14.30
2008,07,23,02,45,14.30
2008,07,23,02,46,14.30
2008,07,23,02,47,14.30
2008,07,23,02,48,14.20
2008,07,23,02,49,14.20
2008,07,23,02,50,14.30
2008,07,23,02,51,14.40
2008,07,23,02,52,14.40
2008,07,23,02,53,14.40
2008,07,23,02,54,14.40
2008,07,23,02,55,14.50
2008,07,23,02,56,14.50
2008,07,23,02,57,14.50
2008,07,23,02,58,14.50
2008,07,23,02,59,14.40
2008,07,23,03,00,14.40
2008,07,23,03,01,14.40
2008,07,23,03,02,14.30
2008,07,23,03,03,14.30
2008,07,23,03,04,14.30
2008,07,23,03,05,14.30
2008,07,23,03,06,14.20
2008,07,23,03,07,14.20
2008,07,23,03,08,14.20
2008,07,23,03,09,14.20
2008,07,23,03,10,14.20
2008,07,23,03,11,14.10
2008,07,23,03,12,14.10
2008,07,23,03,13,14.00
2008,07,23,03,14,14.00
2008,07,23,03,15,13.90
2008,07,23,03,16,13.90
2008,07,23,03,17,13.80
2008,07,23,03,18,13.80
2008,07,23,03,19,13.80
2008,07,23,03,20,13.70
2008,07,23,03,21,13.70
2008,07,23,03,22,13.60
2008,07,23,03,23,13.60
2008,07,23,03,24,13.60
2008,07,23,03,25,13.50
2008,07,23,03,26,13.50
2008,07,23,03,27,13.50
2008,07,23,03,28,13.40
2008,07,23,03,29,13.40
2008,07,23,03,30,13.40
2008,07,23,03,31,13.40
2008,07,23,03,32,13.40
2008,07,23,03,33,13.40
2008,07,23,03,34,13.40
2008,07,23,03,35,13.30
2008,07,23,03,36,13.30
2008,07,23,03,37,13.30
2008,07,23,03,38,13.30
2008,07,23,03,39,13.30
2008,07,23,03,40,13.30
2008,07,23,03,41,13.20
2008,07,23,03,42,13.20
2008,07,23,03,43,13.20
2008,07,23,03,44,13.20
2008,07,23,03,45,13.20
2008,07,23,03,46,13.10
2008,07,23,03,47,13.10
2008,07,23,03,48,13.10
2008,07,23,03,49,13.20
2008,07,23,03,50,13.20
2008,07,23,03,51,13.20
2008,07,23,03,52,13.20
2008,07,23,03,53,13.10
2008,07,23,03,54,13.10
2008,07,23,03,55,13.10
2008,07,23,03,56,13.10
2008,07,23,03,57,13.00
2008,07,23,03,58,13.00
2008,07,23,03,59,12.90
2008,07,23,04,00,12.90
2008,07,23,04,01,12.90
2008,07,23,04,02,12.80
2008,07,23,04,03,12.80
2008,07,23,04,04,12.80
2008,07,23,04,05,12.80
2008,07,23,04,06,12.80
2008,07,23,04,07,12.70
2008,07,23,04,08,12.70
2008,07,23,04,09,12.70
2008,07,23,04,10,12.70
2008,07,23,04,11,12.70
2008,07,23,04,12,12.70
2008,07,23,04,13,12.70
2008,07,23,04,14,12.70
2008,07,23,04,15,12.60
2008,07,23,04,16,12.60
2008,07,23,04,17,12.60
2008,07,23,04,18,12.60
2008,07,23,04,19,12.60
2008,07,23,04,20,12.50
2008,07,23,04,21,12.50
2008,07,23,04,22,12.40
2008,07,23,04,23,12.40
2008,07,23,04,24,12.40
2008,07,23,04,25,12.30
2008,07,23,04,26,12.30
2008,07,23,04,27,12.30
2008,07,23,04,28,12.30
2008,07,23,04,29,12.20
2008,07,23,04,30,12.20
2008,07,23,04,31,12.20
2008,07,23,04,32,12.20
2008,07,23,04,33,12.20
2008,07,23,04,34,12.20
2008,07,23,04,35,12.10
2008,07,23,04,36,12.10
2008,07,23,04,37,12.10
2008,07,23,04,38,12.10
2008,07,23,04,39,12.10
2008,07,23,04,40,12.10
2008,07,23,04,41,12.10
2008,07,23,04,42,12.10
2008,07,23,04,43,12.10
2008,07,23,04,44,12.10
2008,07,23,04,45,12.10
2008,07,23,04,46,12.00
2008,07,23,04,47,12.00
2008,07,23,04,48,11.90
2008,07,23,04,49,11.90
2008,07,23,04,50,11.80
2008,07,23,04,51,11.80
2008,07,23,04,52,11.80
2008,07,23,04,53,11.70
2008,07,23,04,54,11.70
2008,07,23,04,55,11.70
2008,07,23,04,56,11.70
2008,07,23,04,57,11.70
2008,07,23,04,58,11.60
2008,07,23,04,59,11.60
2008,07,23,05,00,11.60
2008,07,23,05,01,11.60
2008,07,23,05,02,11.60
2008,07,23,05,03,11.60
2008,07,23,05,04,11.60
2008,07,23,05,05,11.60
2008,07,23,05,06,11.50
2008,07,23,05,07,11.50
2008,07,23,05,08,11.50
2008,07,23,05,09,11.50
2008,07,23,05,10,11.50
2008,07,23,05,11,11.50
2008,07,23,05,12,11.40
2008,07,23,05,13,11.40
2008,07,23,05,14,11.40
2008,07,23,05,15,11.40
2008,07,23,05,16,11.40
2008,07,23,05,17,11.40
2008,07,23,05,18,11.40
2008,07,23,05,19,11.40
2008,07,23,05,20,11.40
2008,07,23,05,21,11.40
2008,07,23,05,22,11.40
2008,07,23,05,23,11.40
2008,07,23,05,24,11.30
2008,07,23,05,25,11.30
2008,07,23,05,26,11.30
2008,07,23,05,27,11.30
2008,07,23,05,28,11.30
2008,07,23,05,29,11.20
2008,07,23,05,30,11.20
2008,07,23,05,31,11.20
2008,07,23,05,32,11.20
2008,07,23,05,33,11.20
2008,07,23,05,34,11.20
2008,07,23,05,35,11.10
2008,07,23,05,36,11.10
2008,07,23,05,37,11.10
2008,07,23,05,38,11.10
2008,07,23,05,39,11.10
2008,07,23,05,40,11.10
2008,07,23,05,41,11.00
2008,07,23,05,42,11.00
2008,07,23,05,43,11.00
2008,07,23,05,44,11.00
2008,07,23,05,45,11.00
2008,07,23,05,46,11.00
2008,07,23,05,47,11.00
2008,07,23,05,48,11.00
2008,07,23,05,49,11.00
2008,07,23,05,50,10.90
2008,07,23,05,51,10.90
2008,07,23,05,52,10.90
2008,07,23,05,53,10.90
2008,07,23,05,54,10.90
2008,07,23,05,55,10.90
2008,07,23,05,56,10.90
2008,07,23,05,57,10.80
2008,07,23,05,58,10.80
2008,07,23,05,59,10.80
2008,07,23,06,00,10.80
2008,07,23,06,01,10.80
2008,07,23,06,02,10.80
2008,07,23,06,03,10.80
2008,07,23,06,04,10.70
2008,07,23,06,05,10.70
2008,07,23,06,06,10.70
2008,07,23,06,07,10.70
2008,07,23,06,08,10.70
2008,07,23,06,09,10.70
2008,07,23,06,10,10.70
2008,07,23,06,11,10.70
2008,07,23,06,12,10.70
2008,07,23,06,13,10.70
2008,07,23,06,14,10.70
2008,07,23,06,15,10.70
2008,07,23,06,16,10.70
2008,07,23,06,17,10.70
2008,07,23,06,18,10.70
2008,07,23,06,19,10.70
2008,07,23,06,20,10.70
2008,07,23,06,21,10.70
2008,07,23,06,22,10.70
2008,07,23,06,23,10.80
2008,07,23,06,24,10.80
2008,07,23,06,25,10.80
2008,07,23,06,26,10.80
2008,07,23,06,27,10.80
2008,07,23,06,28,10.90
2008,07,23,06,29,10.90
2008,07,23,06,30,10.90
2008,07,23,06,31,10.90
2008,07,23,06,32,10.90
2008,07,23,06,33,10.90
2008,07,23,06,34,10.90
2008,07,23,06,35,10.90
2008,07,23,06,36,10.90
2008,07,23,06,37,10.90
2008,07,23,06,38,10.90
2008,07,23,06,39,11.00
2008,07,23,06,40,11.00
2008,07,23,06,41,11.00
2008,07,23,06,42,11.10
2008,07,23,06,43,11.10
2008,07,23,06,44,11.10
2008,07,23,06,45,11.10
2008,07,23,06,46,11.20
2008,07,23,06,47,11.20
2008,07,23,06,48,11.20
2008,07,23,06,49,11.20
2008,07,23,06,50,11.30
2008,07,23,06,51,11.30
2008,07,23,06,52,11.30
2008,07,23,06,53,11.40
2008,07,23,06,54,11.40
2008,07,23,06,55,11.50
2008,07,23,06,56,11.50
2008,07,23,06,57,11.60
2008,07,23,06,58,11.60
2008,07,23,06,59,11.70
2008,07,23,07,00,11.70
2008,07,23,07,01,11.80
2008,07,23,07,02,11.80
2008,07,23,07,03,11.90
2008,07,23,07,04,12.00
2008,07,23,07,05,12.00
2008,07,23,07,06,12.10
2008,07,23,07,07,12.20
2008,07,23,07,08,12.20
2008,07,23,07,09,12.30
2008,07,23,07,10,12.30
2008,07,23,07,11,12.30
2008,07,23,07,12,12.30
2008,07,23,07,13,12.40
2008,07,23,07,14,12.40
2008,07,23,07,15,12.40
2008,07,23,07,16,12.40
2008,07,23,07,17,12.50
2008,07,23,07,18,12.50
2008,07,23,07,19,12.60
2008,07,23,07,20,12.60
2008,07,23,07,21,12.60
2008,07,23,07,22,12.60
2008,07,23,07,23,12.70
2008,07,23,07,24,12.70
2008,07,23,07,25,12.80
2008,07,23,07,26,12.80
2008,07,23,07,27,12.80
2008,07,23,07,28,12.90
2008,07,23,07,29,12.90
2008,07,23,07,30,13.00
2008,07,23,07,31,13.20
2008,07,23,07,32,13.30
2008,07,23,07,33,13.40
2008,07,23,07,34,13.40
2008,07,23,07,35,13.50
2008,07,23,07,36,13.60
2008,07,23,07,37,13.70
2008,07,23,07,38,13.80
2008,07,23,07,39,13.80
2008,07,23,07,40,13.80
2008,07,23,07,41,13.90
2008,07,23,07,42,13.90
2008,07,23,07,43,14.00
2008,07,23,07,44,14.00
2008,07,23,07,45,14.00
2008,07,23,07,46,14.00
2008,07,23,07,47,14.00
2008,07,23,07,48,14.00
2008,07,23,07,49,14.00
2008,07,23,07,50,14.00
2008,07,23,07,51,14.00
2008,07,23,07,52,14.10
2008,07,23,07,53,14.10
2008,07,23,07,54,14.10
2008,07,23,07,55,14.10
2008,07,23,07,56,14.10
2008,07,23,07,57,14.10
2008,07,23,07,58,14.10
2008,07,23,07,59,14.10
2008,07,23,08,00,14.20
2008,07,23,08,01,14.20
2008,07,23,08,02,14.20
2008,07,23,08,03,14.30
2008,07,23,08,04,14.30
2008,07,23,08,05,14.30
2008,07,23,08,06,14.40
2008,07,23,08,07,14.40
2008,07,23,08,08,14.40
2008,07,23,08,09,14.40
2008,07,23,08,10,14.40
2008,07,23,08,11,14.40
2008,07,23,08,12,14.30
2008,07,23,08,13,14.30
2008,07,23,08,14,14.30
2008,07,23,08,15,14.30
2008,07,23,08,16,14.30
2008,07,23,08,17,14.30
2008,07,23,08,18,14.30
2008,07,23,08,19,14.30
2008,07,23,08,20,14.30
2008,07,23,08,21,14.30
2008,07,23,08,22,14.30
2008,07,23,08,23,14.30
2008,07,23,08,24,14.30
2008,07,23,08,25,14.30
2008,07,23,08,26,14.40
2008,07,23,08,27,14.40
2008,07,23,08,28,14.40
2008,07,23,08,29,14.50
2008,07,23,08,30,14.50
2008,07,23,08,31,14.60
2008,07,23,08,32,14.60
2008,07,23,08,33,14.60
2008,07,23,08,34,14.70
2008,07,23,08,35,14.70
2008,07,23,08,36,14.70
2008,07,23,08,37,14.70
2008,07,23,08,38,14.80
2008,07,23,08,39,14.90
2008,07,23,08,40,15.00
2008,07,23,08,41,15.00
2008,07,23,08,42,15.00
2008,07,23,08,43,15.00
2008,07,23,08,44,15.00
2008,07,23,08,45,15.00
2008,07,23,08,46,15.00
2008,07,23,08,47,15.00
2008,07,23,08,48,15.00
2008,07,23,08,49,15.00
2008,07,23,08,50,15.00
2008,07,23,08,51,15.00
2008,07,23,08,52,15.00
2008,07,23,08,53,15.00
2008,07,23,08,54,15.00
2008,07,23,08,55,15.00
2008,07,23,08,56,15.00
2008,07,23,08,57,15.00
2008,07,23,08,58,15.00
2008,07,23,08,59,15.00
2008,07,23,09,00,15.00
2008,07,23,09,01,15.10
2008,07,23,09,02,15.10
2008,07,23,09,03,15.10
2008,07,23,09,04,15.10
2008,07,23,09,05,15.20
2008,07,23,09,06,15.20
2008,07,23,09,07,15.20
2008,07,23,09,08,15.20
2008,07,23,09,09,15.20
2008,07,23,09,10,15.20
2008,07,23,09,11,15.30
2008,07,23,09,12,15.40
2008,07,23,09,13,15.40
2008,07,23,09,14,15.50
2008,07,23,09,15,15.50
2008,07,23,09,16,15.60
2008,07,23,09,17,15.60
2008,07,23,09,18,15.60
2008,07,23,09,19,15.70
2008,07,23,09,20,15.70
2008,07,23,09,21,15.80
2008,07,23,09,22,15.80
2008,07,23,09,23,15.90
2008,07,23,09,24,16.00
2008,07,23,09,25,16.00
2008,07,23,09,26,16.10
2008,07,23,09,27,16.10
2008,07,23,09,28,16.20
2008,07,23,09,29,16.20
2008,07,23,09,30,16.30
2008,07,23,09,31,16.40
2008,07,23,09,32,16.40
2008,07,23,09,33,16.40
2008,07,23,09,34,16.40
2008,07,23,09,35,16.30
2008,07,23,09,36,16.30
2008,07,23,09,37,16.20
2008,07,23,09,38,16.20
2008,07,23,09,39,16.30
2008,07,23,09,40,16.30
2008,07,23,09,41,16.30
2008,07,23,09,42,16.30
2008,07,23,09,43,16.30
2008,07,23,09,44,16.20
2008,07,23,09,45,16.20
2008,07,23,09,46,16.20
2008,07,23,09,47,16.20
2008,07,23,09,48,16.20
2008,07,23,09,49,16.30
2008,07,23,09,50,16.30
2008,07,23,09,51,16.30
2008,07,23,09,52,16.30
2008,07,23,09,53,16.40
2008,07,23,09,54,16.40
2008,07,23,09,55,16.40
2008,07,23,09,56,16.50
2008,07,23,09,57,16.60
2008,07,23,09,58,16.70
2008,07,23,09,59,16.80
2008,07,23,10,00,16.80
2008,07,23,10,01,16.90
2008,07,23,10,02,16.90
2008,07,23,10,03,17.00
2008,07,23,10,04,17.10
2008,07,23,10,05,17.10
2008,07,23,10,06,17.10
2008,07,23,10,07,17.00
2008,07,23,10,08,17.00
2008,07,23,10,09,17.00
2008,07,23,10,10,17.00
2008,07,23,10,11,17.10
2008,07,23,10,12,17.10
2008,07,23,10,13,17.20
2008,07,23,10,14,17.20
2008,07,23,10,15,17.20
2008,07,23,10,16,17.10
2008,07,23,10,17,17.00
2008,07,23,10,18,17.00
2008,07,23,10,19,16.90
2008,07,23,10,20,16.90
2008,07,23,10,21,16.90
2008,07,23,10,22,17.00
2008,07,23,10,23,17.10
2008,07,23,10,24,17.20
2008,07,23,10,25,17.30
2008,07,23,10,26,17.30
2008,07,23,10,27,17.30
2008,07,23,10,28,17.30
2008,07,23,10,29,17.30
2008,07,23,10,30,17.20
2008,07,23,10,31,17.20
2008,07,23,10,32,17.20
2008,07,23,10,33,17.20
2008,07,23,10,34,17.20
2008,07,23,10,35,17.20
2008,07,23,10,36,17.20
2008,07,23,10,37,17.20
2008,07,23,10,38,17.20
2008,07,23,10,39,17.20
2008,07,23,10,40,17.10
2008,07,23,10,41,17.00
2008,07,23,10,42,17.00
2008,07,23,10,43,17.00
2008,07,23,10,44,17.00
2008,07,23,10,45,16.90
2008,07,23,10,46,16.80
2008,07,23,10,47,16.70
2008,07,23,10,48,16.70
2008,07,23,10,49,16.70
2008,07,23,10,50,16.70
2008,07,23,10,51,16.70
2008,07,23,10,52,16.70
2008,07,23,10,53,16.70
2008,07,23,10,54,16.70
2008,07,23,10,55,16.70
2008,07,23,10,56,16.70
2008,07,23,10,57,16.70
2008,07,23,10,58,16.80
2008,07,23,10,59,16.80
2008,07,23,11,00,16.80
2008,07,23,11,01,17.00
2008,07,23,11,02,17.00
2008,07,23,11,03,17.00
2008,07,23,11,04,16.90
2008,07,23,11,05,16.90
2008,07,23,11,06,16.90
2008,07,23,11,07,16.80
2008,07,23,11,08,16.80
2008,07,23,11,09,16.70
2008,07,23,11,10,16.70
2008,07,23,11,11,16.70
2008,07,23,11,12,16.70
2008,07,23,11,13,16.70
2008,07,23,11,14,16.70
2008,07,23,11,15,16.80
2008,07,23,11,16,16.80
2008,07,23,11,17,16.80
2008,07,23,11,18,16.80
2008,07,23,11,19,16.80
2008,07,23,11,20,16.80
2008,07,23,11,21,16.90
2008,07,23,11,22,17.00
2008,07,23,11,23,17.00
2008,07,23,11,24,17.10
2008,07,23,11,25,17.10
2008,07,23,11,26,17.20
2008,07,23,11,27,17.20
2008,07,23,11,28,17.10
2008,07,23,11,29,17.10
2008,07,23,11,30,17.10
2008,07,23,11,31,17.10
2008,07,23,11,32,17.10
2008,07,23,11,33,17.10
2008,07,23,11,34,17.10
2008,07,23,11,35,17.00
2008,07,23,11,36,16.90
2008,07,23,11,37,16.90
2008,07,23,11,38,16.90
2008,07,23,11,39,16.80
2008,07,23,11,40,16.80
2008,07,23,11,41,16.70
2008,07,23,11,42,16.70
2008,07,23,11,43,16.70
2008,07,23,11,44,16.80
2008,07,23,11,45,16.80
2008,07,23,11,46,16.90
2008,07,23,11,47,16.90
2008,07,23,11,48,16.90
2008,07,23,11,49,17.00
2008,07,23,11,50,17.10
2008,07,23,11,51,17.10
2008,07,23,11,52,17.20
2008,07,23,11,53,17.30
2008,07,23,11,54,17.20
2008,07,23,11,55,17.20
2008,07,23,11,56,17.20
2008,07,23,11,57,17.20
2008,07,23,11,58,17.20
2008,07,23,11,59,17.10
2008,07,23,12,00,17.10
2008,07,23,12,01,17.10
2008,07,23,12,02,17.00
2008,07,23,12,03,16.90
2008,07,23,12,04,16.90
2008,07,23,12,05,16.90
2008,07,23,12,06,16.80
2008,07,23,12,07,16.80
2008,07,23,12,08,16.80
2008,07,23,12,09,16.80
2008,07,23,12,10,16.80
2008,07,23,12,11,16.90
2008,07,23,12,12,16.90
2008,07,23,12,13,17.00
2008,07,23,12,14,17.10
2008,07,23,12,15,17.10
2008,07,23,12,16,17.20
2008,07,23,12,17,17.10
2008,07,23,12,18,17.20
2008,07,23,12,19,17.20
2008,07,23,12,20,17.20
2008,07,23,12,21,17.30
2008,07,23,12,22,17.30
2008,07,23,12,23,17.40
2008,07,23,12,24,17.40
2008,07,23,12,25,17.50
2008,07,23,12,26,17.60
2008,07,23,12,27,17.60
2008,07,23,12,28,17.70
2008,07,23,12,29,17.70
2008,07,23,12,30,17.80
2008,07,23,12,31,17.80
2008,07,23,12,32,17.90
2008,07,23,12,33,18.00
2008,07,23,12,34,18.10
2008,07,23,12,35,18.10
2008,07,23,12,36,18.10
2008,07,23,12,37,18.20
2008,07,23,12,38,18.20
2008,07,23,12,39,18.30
2008,07,23,12,40,18.20
2008,07,23,12,41,18.20
2008,07,23,12,42,18.20
2008,07,23,12,43,18.30
2008,07,23,12,44,18.30
2008,07,23,12,45,18.20
2008,07,23,12,46,18.20
2008,07,23,12,47,18.30
2008,07,23,12,48,18.30
2008,07,23,12,49,18.20
2008,07,23,12,50,18.20
2008,07,23,12,51,18.20
2008,07,23,12,52,18.20
2008,07,23,12,53,18.40
2008,07,23,12,54,18.40
2008,07,23,12,55,18.40
2008,07,23,12,56,18.40
2008,07,23,12,57,18.40
2008,07,23,12,58,18.50
2008,07,23,12,59,18.50
2008,07,23,13,00,18.50
2008,07,23,13,01,18.50
2008,07,23,13,02,18.50
2008,07,23,13,03,18.40
2008,07,23,13,04,18.40
2008,07,23,13,05,18.40
2008,07,23,13,06,18.50
2008,07,23,13,07,18.60
2008,07,23,13,08,18.70
2008,07,23,13,09,18.80
2008,07,23,13,10,18.80
2008,07,23,13,11,18.90
2008,07,23,13,12,18.80
2008,07,23,13,13,18.80
2008,07,23,13,14,18.80
2008,07,23,13,15,18.80
2008,07,23,13,16,18.80
2008,07,23,13,17,18.80
2008,07,23,13,18,18.80
2008,07,23,13,19,18.80
2008,07,23,13,20,18.80
2008,07,23,13,21,18.80
2008,07,23,13,22,18.80
2008,07,23,13,23,18.90
2008,07,23,13,24,19.00
2008,07,23,13,25,19.00
2008,07,23,13,26,19.10
2008,07,23,13,27,19.00
2008,07,23,13,28,19.10
2008,07,23,13,29,19.10
2008,07,23,13,30,19.10
2008,07,23,13,31,19.10
2008,07,23,13,32,19.00
2008,07,23,13,33,18.90
2008,07,23,13,34,18.90
2008,07,23,13,35,18.90
2008,07,23,13,36,19.00
2008,07,23,13,37,19.00
2008,07,23,13,38,19.00
2008,07,23,13,39,19.10
2008,07,23,13,40,19.20
2008,07,23,13,41,19.20
2008,07,23,13,42,19.10
2008,07,23,13,43,19.20
2008,07,23,13,44,19.20
2008,07,23,13,45,19.10
2008,07,23,13,46,19.10
2008,07,23,13,47,19.10
2008,07,23,13,48,19.10
2008,07,23,13,49,19.00
2008,07,23,13,50,19.00
2008,07,23,13,51,18.90
2008,07,23,13,52,18.90
2008,07,23,13,53,18.80
2008,07,23,13,54,18.80
2008,07,23,13,55,18.90
2008,07,23,13,56,19.00
2008,07,23,13,57,18.90
2008,07,23,13,58,19.00
2008,07,23,13,59,19.00
2008,07,23,14,00,19.20
2008,07,23,14,01,19.30
2008,07,23,14,02,19.40
2008,07,23,14,03,19.50
2008,07,23,14,04,19.60
2008,07,23,14,05,19.60
2008,07,23,14,06,19.60
2008,07,23,14,07,19.60
2008,07,23,14,08,19.50
2008,07,23,14,09,19.40
2008,07,23,14,10,19.40
2008,07,23,14,11,19.40
2008,07,23,14,12,19.40
2008,07,23,14,13,19.40
2008,07,23,14,14,19.40
2008,07,23,14,15,19.50
2008,07,23,14,16,19.50
2008,07,23,14,17,19.60
2008,07,23,14,18,19.60
2008,07,23,14,19,19.60
2008,07,23,14,20,19.70
2008,07,23,14,21,19.70
2008,07,23,14,22,19.70
2008,07,23,14,23,19.80
2008,07,23,14,24,19.90
2008,07,23,14,25,20.00
2008,07,23,14,26,20.00
2008,07,23,14,27,19.90
2008,07,23,14,28,20.00
2008,07,23,14,29,20.00
2008,07,23,14,30,19.90
2008,07,23,14,31,19.80
2008,07,23,14,32,19.80
2008,07,23,14,33,19.80
2008,07,23,14,34,19.80
2008,07,23,14,35,19.80
2008,07,23,14,36,19.80
2008,07,23,14,37,19.90
2008,07,23,14,38,20.00
2008,07,23,14,39,20.00
2008,07,23,14,40,20.00
2008,07,23,14,41,20.10
2008,07,23,14,42,20.10
2008,07,23,14,43,20.00
2008,07,23,14,44,19.90
2008,07,23,14,45,19.90
2008,07,23,14,46,20.00
2008,07,23,14,47,20.00
2008,07,23,14,48,19.90
2008,07,23,14,49,19.90
2008,07,23,14,50,19.80
2008,07,23,14,51,19.80
2008,07,23,14,52,19.70
2008,07,23,14,53,19.70
2008,07,23,14,54,19.70
2008,07,23,14,55,19.80
2008,07,23,14,56,19.80
2008,07,23,14,57,19.80
2008,07,23,14,58,19.80
2008,07,23,14,59,19.80
2008,07,23,15,00,19.80
2008,07,23,15,01,19.80
2008,07,23,15,02,19.90
2008,07,23,15,03,20.00
2008,07,23,15,04,20.10
2008,07,23,15,05,20.20
2008,07,23,15,06,20.20
2008,07,23,15,07,20.10
2008,07,23,15,08,20.10
2008,07,23,15,09,20.00
2008,07,23,15,10,20.10
2008,07,23,15,11,20.20
2008,07,23,15,12,20.20
2008,07,23,15,13,20.10
2008,07,23,15,14,20.20
2008,07,23,15,15,20.20
2008,07,23,15,16,20.20
2008,07,23,15,17,20.00
2008,07,23,15,18,19.90
2008,07,23,15,19,20.00
2008,07,23,15,20,20.00
2008,07,23,15,21,20.10
2008,07,23,15,22,20.10
2008,07,23,15,23,20.10
2008,07,23,15,24,20.10
2008,07,23,15,25,20.00
2008,07,23,15,26,19.90
2008,07,23,15,27,19.90
2008,07,23,15,28,19.80
2008,07,23,15,29,19.80
2008,07,23,15,30,19.80
2008,07,23,15,31,19.70
2008,07,23,15,32,19.50
2008,07,23,15,33,19.50
2008,07,23,15,34,19.40
2008,07,23,15,35,19.30
2008,07,23,15,36,19.30
2008,07,23,15,37,19.20
2008,07,23,15,38,19.20
2008,07,23,15,39,19.20
2008,07,23,15,40,19.20
2008,07,23,15,41,19.30
2008,07,23,15,42,19.30
2008,07,23,15,43,19.40
2008,07,23,15,44,19.50
2008,07,23,15,45,19.60
2008,07,23,15,46,19.60
2008,07,23,15,47,19.60
2008,07,23,15,48,19.60
2008,07,23,15,49,19.50
2008,07,23,15,50,19.30
2008,07,23,15,51,19.20
2008,07,23,15,52,19.10
2008,07,23,15,53,19.10
2008,07,23,15,54,19.00
2008,07,23,15,55,18.90
2008,07,23,15,56,18.80
2008,07,23,15,57,18.70
2008,07,23,15,58,18.60
2008,07,23,15,59,18.60
2008,07,23,16,00,18.60
2008,07,23,16,01,18.50
2008,07,23,16,02,18.50
2008,07,23,16,03,18.50
2008,07,23,16,04,18.50
2008,07,23,16,05,18.60
2008,07,23,16,06,18.60
2008,07,23,16,07,18.60
2008,07,23,16,08,18.70
2008,07,23,16,09,18.80
2008,07,23,16,10,19.00
2008,07,23,16,11,19.10
2008,07,23,16,12,19.20
2008,07,23,16,13,19.30
2008,07,23,16,14,19.40
2008,07,23,16,15,19.40
2008,07,23,16,16,19.40
2008,07,23,16,17,19.30
2008,07,23,16,18,19.30
2008,07,23,16,19,19.20
2008,07,23,16,20,19.10
2008,07,23,16,21,19.00
2008,07,23,16,22,18.90
2008,07,23,16,23,18.90
2008,07,23,16,24,18.90
2008,07,23,16,25,18.90
2008,07,23,16,26,18.90
2008,07,23,16,27,18.90
2008,07,23,16,28,18.80
2008,07,23,16,29,18.80
2008,07,23,16,30,18.70
2008,07,23,16,31,18.70
2008,07,23,16,32,18.60
2008,07,23,16,33,18.70
2008,07,23,16,34,18.70
2008,07,23,16,35,18.70
2008,07,23,16,36,18.60
2008,07,23,16,37,18.60
2008,07,23,16,38,18.60
2008,07,23,16,39,18.60
2008,07,23,16,40,18.60
2008,07,23,16,41,18.60
2008,07,23,16,42,18.70
2008,07,23,16,43,18.70
2008,07,23,16,44,18.80
2008,07,23,16,45,18.90
2008,07,23,16,46,19.00
2008,07,23,16,47,18.90
2008,07,23,16,48,18.80
2008,07,23,16,49,18.70
2008,07,23,16,50,18.70
2008,07,23,16,51,18.70
2008,07,23,16,52,18.80
2008,07,23,16,53,18.80
2008,07,23,16,54,18.80
2008,07,23,16,55,18.80
2008,07,23,16,56,18.70
2008,07,23,16,57,18.70
2008,07,23,16,58,18.70
2008,07,23,16,59,18.70
2008,07,23,17,00,18.60
2008,07,23,17,01,18.40
2008,07,23,17,02,18.30
2008,07,23,17,03,18.20
2008,07,23,17,04,18.20
2008,07,23,17,05,18.20
2008,07,23,17,06,18.20
2008,07,23,17,07,18.20
2008,07,23,17,08,18.10
2008,07,23,17,09,18.20
2008,07,23,17,10,18.10
2008,07,23,17,11,18.10
2008,07,23,17,12,18.00
2008,07,23,17,13,17.90
2008,07,23,17,14,17.80
2008,07,23,17,15,17.80
2008,07,23,17,16,17.80
2008,07,23,17,17,17.70
2008,07,23,17,18,17.70
2008,07,23,17,19,17.70
2008,07,23,17,20,17.70
2008,07,23,17,21,17.80
2008,07,23,17,22,17.80
2008,07,23,17,23,17.70